| time (UTC) | temp C | wind direction | speed KPH | gust KPH | rain 1hr cm | rain 24hr cm | rain mn cm | humidity % | barometer mb |
| 20260903174258 | 15 | 205 | 9.7 | 19.3 | 0.00 | 0.89 | 0.00 | 77 | 1010.0 |
| 20260903174027 | 15 | 175 | 9.7 | 22.5 | 0.00 | 0.89 | 0.00 | 77 | 1010.0 |
| 20260903173522 | 15 | 191 | 11.3 | 22.5 | 0.00 | 0.91 | 0.00 | 77 | 1009.9 |
| 20260903173019 | 15 | 152 | 9.7 | 19.3 | 0.00 | 0.97 | 0.00 | 77 | 1009.8 |
| 20260903172524 | 15 | 164 | 11.3 | 25.7 | 0.00 | 0.99 | 0.00 | 77 | 1009.9 |
| 20260903171754 | 15 | 180 | 11.3 | 25.7 | 0.00 | 1.02 | 0.00 | 78 | 1009.8 |
| 20260903171254 | 15 | 155 | 11.3 | 22.5 | 0.00 | 1.07 | 0.00 | 79 | 1009.8 |
| 20260903170753 | 15 | 163 | 11.3 | 25.7 | 0.00 | 1.14 | 0.00 | 78 | 1009.8 |
| 20260903170254 | 15 | 158 | 12.9 | 25.7 | 0.00 | 1.19 | 0.00 | 77 | 1009.7 |
| 20260903165751 | 15 | 164 | 12.9 | 20.9 | 0.00 | 1.22 | 0.00 | 78 | 1009.7 |
| 20260903165518 | 14 | 154 | 12.9 | 24.1 | 0.00 | 1.24 | 0.00 | 79 | 1009.8 |
| 20260903164752 | 14 | 164 | 12.9 | 24.1 | 0.00 | 1.27 | 0.00 | 79 | 1009.8 |
| 20260903164249 | 14 | 174 | 11.3 | 22.5 | 0.00 | 1.27 | 0.00 | 80 | 1009.9 |
| 20260903164013 | 14 | 153 | 11.3 | 22.5 | 0.00 | 1.27 | 0.00 | 81 | 1009.9 |
| 20260903163248 | 14 | 163 | 9.7 | 19.3 | 0.00 | 1.27 | 0.00 | 82 | 1009.9 |
| 20260903162749 | 14 | 174 | 9.7 | 19.3 | 0.00 | 1.27 | 0.00 | 82 | 1009.9 |
| 20260903162240 | 14 | 151 | 9.7 | 20.9 | 0.00 | 1.27 | 0.00 | 83 | 1009.9 |
| 20260903161740 | 14 | 184 | 9.7 | 20.9 | 0.00 | 1.30 | 0.00 | 83 | 1010.0 |
| 20260903161241 | 13 | 128 | 11.3 | 22.5 | 0.00 | 1.30 | 0.00 | 84 | 1010.0 |
| 20260903160950 | 13 | 135 | 11.3 | 19.3 | 0.00 | 1.30 | 0.00 | 84 | 1010.1 |
| 20260903160832 | 13 | 164 | 12.9 | 22.5 | 0.00 | 1.30 | 0.00 | 84 | 1010.0 |
| 20260903155737 | 13 | 176 | 9.7 | 17.7 | 0.00 | 1.32 | 0.00 | 84 | 1010.1 |
| 20260903155236 | 13 | 172 | 9.7 | 17.7 | 0.00 | 1.35 | 0.00 | 85 | 1010.3 |
| 20260903154737 | 13 | 187 | 9.7 | 17.7 | 0.00 | 1.37 | 0.00 | 85 | 1010.2 |
| 20260903154233 | 13 | 145 | 11.3 | 24.1 | 0.00 | 1.37 | 0.00 | 85 | 1010.2 |
| 20260903153731 | 13 | 172 | 12.9 | 24.1 | 0.00 | 1.37 | 0.00 | 85 | 1010.2 |
| 20260903153231 | 13 | 169 | 11.3 | 19.3 | 0.00 | 1.37 | 0.00 | 85 | 1010.3 |
| 20260903152723 | 13 | 203 | 9.7 | 17.7 | 0.00 | 1.37 | 0.00 | 86 | 1010.3 |
| 20260903152223 | 13 | 167 | 9.7 | 17.7 | 0.00 | 1.37 | 0.00 | 86 | 1010.2 |
| 20260903151724 | 13 | 137 | 8.0 | 16.1 | 0.00 | 1.37 | 0.00 | 85 | 1010.3 |
| 20260903151217 | 13 | 142 | 8.0 | 16.1 | 0.00 | 1.37 | 0.00 | 86 | 1010.1 |
| 20260903150720 | 13 | 154 | 6.4 | 16.1 | 0.00 | 1.37 | 0.00 | 86 | 1010.2 |
| 20260903150217 | 13 | 153 | 4.8 | 11.3 | 0.00 | 1.37 | 0.00 | 87 | 1010.2 |
| 20260903145719 | 12 | 160 | 4.8 | 11.3 | 0.00 | 1.37 | 0.00 | 87 | 1010.1 |
| 20260903145217 | 12 | 172 | 4.8 | 11.3 | 0.00 | 1.37 | 0.00 | 87 | 1010.1 |
| 20260903144718 | 12 | 145 | 6.4 | 14.5 | 0.00 | 1.37 | 0.00 | 87 | 1010.1 |
| 20260903144216 | 12 | 163 | 6.4 | 14.5 | 0.00 | 1.37 | 0.00 | 87 | 1010.2 |
| 20260903143712 | 12 | 170 | 6.4 | 12.9 | 0.00 | 1.37 | 0.00 | 87 | 1010.2 |
| 20260903143211 | 12 | 168 | 8.0 | 12.9 | 0.00 | 1.37 | 0.00 | 87 | 1010.3 |
| 20260903142711 | 12 | 197 | 8.0 | 16.1 | 0.00 | 1.37 | 0.00 | 87 | 1010.3 |
| 20260903142211 | 12 | 163 | 8.0 | 16.1 | 0.00 | 1.37 | 0.00 | 87 | 1010.2 |
| 20260903141710 | 12 | 146 | 6.4 | 14.5 | 0.00 | 1.37 | 0.00 | 87 | 1010.1 |
| 20260903141211 | 12 | 158 | 6.4 | 12.9 | 0.00 | 1.37 | 0.00 | 87 | 1010.0 |
| 20260903140709 | 12 | 170 | 8.0 | 19.3 | 0.00 | 1.37 | 0.00 | 87 | 1010.0 |
| 20260903140219 | 12 | 174 | 11.3 | 20.9 | 0.00 | 1.37 | 0.00 | 87 | 1009.9 |
| 20260903140209 | 12 | 166 | 9.7 | 19.3 | 0.00 | 1.37 | 0.00 | 87 | 1010.0 |
| 20260903135206 | 12 | 168 | 12.9 | 25.7 | 0.00 | 1.37 | 0.00 | 87 | 1009.8 |
| 20260903134708 | 12 | 153 | 12.9 | 25.7 | 0.00 | 1.37 | 0.00 | 87 | 1009.8 |
| 20260903134205 | 12 | 159 | 12.9 | 22.5 | 0.00 | 1.37 | 0.00 | 88 | 1009.8 |
| 20260903133924 | 12 | 149 | 12.9 | 20.9 | 0.00 | 1.37 | 0.00 | 88 | 1009.6 |
| 20260903133206 | 12 | 201 | 11.3 | 19.3 | 0.00 | 1.37 | 0.00 | 88 | 1009.6 |
| 20260903132702 | 12 | 181 | 9.7 | 17.7 | 0.00 | 1.37 | 0.00 | 87 | 1009.8 |
| 20260903132204 | 12 | 181 | 9.7 | 17.7 | 0.00 | 1.37 | 0.00 | 87 | 1009.8 |
| 20260903131922 | 12 | 176 | 9.7 | 17.7 | 0.00 | 1.37 | 0.00 | 87 | 1009.9 |
| 20260903131424 | 12 | 150 | 9.7 | 17.7 | 0.00 | 1.37 | 0.00 | 87 | 1009.9 |
| 20260903130700 | 12 | 186 | 8.0 | 14.5 | 0.00 | 1.37 | 0.00 | 87 | 1009.8 |
| 20260903130159 | 12 | 144 | 9.7 | 19.3 | 0.00 | 1.37 | 0.00 | 87 | 1009.9 |
| 20260903125659 | 12 | 156 | 9.7 | 19.3 | 0.00 | 1.37 | 0.00 | 87 | 1009.8 |
| 20260903125655 | 12 | 169 | 9.7 | 20.9 | 0.00 | 1.37 | 0.00 | 87 | 1009.7 |
| 20260903124913 | 12 | 168 | 9.7 | 20.9 | 0.00 | 1.37 | 0.00 | 87 | 1009.8 |
| 20260903124156 | 12 | 185 | 9.7 | 22.5 | 0.00 | 1.37 | 0.00 | 87 | 1009.9 |
| 20260903123919 | 12 | 133 | 11.3 | 22.5 | 0.00 | 1.37 | 0.00 | 88 | 1009.9 |
| 20260903123155 | 12 | 152 | 12.9 | 22.5 | 0.00 | 1.37 | 0.00 | 88 | 1009.9 |
| 20260903122920 | 12 | 170 | 12.9 | 22.5 | 0.00 | 1.37 | 0.00 | 88 | 1009.9 |
| 20260903122152 | 12 | 153 | 11.3 | 20.9 | 0.00 | 1.37 | 0.00 | 88 | 1010.0 |
| 20260903121653 | 12 | 144 | 11.3 | 20.9 | 0.00 | 1.37 | 0.00 | 89 | 1010.0 |
| 20260903121411 | 12 | 178 | 11.3 | 20.9 | 0.00 | 1.37 | 0.00 | 88 | 1009.8 |
| 20260903120652 | 12 | 153 | 12.9 | 22.5 | 0.00 | 1.37 | 0.00 | 89 | 1009.8 |
| 20260903120151 | 12 | 145 | 12.9 | 22.5 | 0.00 | 1.37 | 0.00 | 89 | 1009.9 |
| 20260903115654 | 12 | 140 | 12.9 | 20.9 | 0.00 | 1.37 | 0.00 | 89 | 1009.9 |
| 20260903115153 | 12 | 158 | 11.3 | 20.9 | 0.00 | 1.37 | 0.00 | 88 | 1010.4 |
| 20260903114651 | 12 | 163 | 11.3 | 16.1 | 0.00 | 1.37 | 0.00 | 88 | 1010.4 |
| 20260903114138 | 12 | 168 | 9.7 | 16.1 | 0.00 | 1.37 | 0.00 | 88 | 1010.5 |
| 20260903113857 | 12 | 175 | 6.4 | 16.1 | 0.00 | 1.37 | 0.00 | 88 | 1010.3 |
| 20260903113108 | 12 | 187 | 4.8 | 12.9 | 0.00 | 1.37 | 0.00 | 88 | 1010.3 |
| 20260903112559 | 12 | 171 | 4.8 | 11.3 | 0.00 | 1.37 | 0.00 | 88 | 1010.2 |
| 20260903112059 | 12 | 189 | 6.4 | 17.7 | 0.00 | 1.37 | 0.00 | 88 | 1010.2 |
| 20260903111600 | 12 | 196 | 8.0 | 17.7 | 0.00 | 1.37 | 0.00 | 88 | 1010.3 |
| 20260903111058 | 12 | 197 | 9.7 | 16.1 | 0.00 | 1.37 | 0.00 | 87 | 1010.2 |
| 20260903110557 | 12 | 176 | 9.7 | 16.1 | 0.00 | 1.37 | 0.00 | 87 | 1010.0 |
| 20260903110055 | 12 | 134 | 11.3 | 19.3 | 0.00 | 1.37 | 0.00 | 86 | 1010.0 |
| 20260903105558 | 12 | 177 | 11.3 | 19.3 | 0.00 | 1.37 | 0.00 | 87 | 1010.0 |
| 20260903105057 | 12 | 176 | 11.3 | 19.3 | 0.00 | 1.37 | 0.00 | 86 | 1010.0 |
| 20260903104553 | 12 | 202 | 9.7 | 19.3 | 0.00 | 1.37 | 0.00 | 86 | 1009.9 |
| 20260903104052 | 12 | 152 | 11.3 | 19.3 | 0.00 | 1.37 | 0.00 | 87 | 1010.1 |
| 20260903103552 | 12 | 153 | 11.3 | 19.3 | 0.00 | 1.37 | 0.00 | 87 | 1010.1 |
| 20260903103050 | 12 | 175 | 11.3 | 20.9 | 0.00 | 1.37 | 0.00 | 87 | 1010.2 |
| 20260903102551 | 12 | 170 | 11.3 | 20.9 | 0.00 | 1.37 | 0.00 | 87 | 1010.1 |
| 20260903102054 | 12 | 172 | 9.7 | 17.7 | 0.00 | 1.37 | 0.00 | 87 | 1010.2 |
| 20260903101552 | 12 | 176 | 11.3 | 22.5 | 0.00 | 1.37 | 0.00 | 87 | 1010.1 |
| 20260903101313 | 13 | 156 | 12.9 | 22.5 | 0.00 | 1.37 | 0.00 | 87 | 1010.2 |
| 20260903100549 | 12 | 228 | 12.9 | 20.9 | 0.00 | 1.37 | 0.00 | 87 | 1010.1 |
| 20260903100047 | 12 | 156 | 9.7 | 19.3 | 0.00 | 1.37 | 0.00 | 87 | 1010.7 |
| 20260903095548 | 12 | 172 | 9.7 | 17.7 | 0.00 | 1.37 | 0.00 | 88 | 1010.1 |
| 20260903095047 | 12 | 162 | 9.7 | 17.7 | 0.00 | 1.37 | 0.00 | 88 | 1010.2 |
| 20260903094545 | 12 | 164 | 9.7 | 17.7 | 0.00 | 1.37 | 0.00 | 88 | 1010.3 |
| 20260903094305 | 12 | 171 | 9.7 | 17.7 | 0.00 | 1.37 | 0.00 | 89 | 1010.3 |
| 20260903093545 | 12 | 149 | 8.0 | 17.7 | 0.00 | 1.37 | 0.00 | 89 | 1010.3 |
| 20260903093309 | 12 | 189 | 8.0 | 17.7 | 0.00 | 1.37 | 0.00 | 89 | 1010.4 |
| 20260903092542 | 12 | 160 | 8.0 | 14.5 | 0.00 | 1.37 | 0.00 | 89 | 1010.4 |
| 20260903092042 | 12 | 180 | 8.0 | 14.5 | 0.00 | 1.37 | 0.00 | 89 | 1010.6 |
| 20260903091540 | 12 | 182 | 8.0 | 16.1 | 0.00 | 1.37 | 0.00 | 88 | 1010.6 |
| 20260903091040 | 12 | 157 | 8.0 | 16.1 | 0.00 | 1.37 | 0.00 | 89 | 1010.6 |
| 20260903090538 | 12 | 185 | 8.0 | 16.1 | 0.00 | 1.37 | 0.00 | 88 | 1010.5 |
| 20260903090038 | 12 | 184 | 9.7 | 17.7 | 0.00 | 1.37 | 0.00 | 89 | 1010.6 |
| 20260903085538 | 12 | 200 | 9.7 | 19.3 | 0.00 | 1.37 | 0.00 | 89 | 1010.6 |
| 20260903085037 | 12 | 174 | 9.7 | 19.3 | 0.00 | 1.37 | 0.00 | 89 | 1010.6 |
| 20260903084756 | 12 | 194 | 8.0 | 17.7 | 0.00 | 1.37 | 0.00 | 88 | 1010.6 |
| 20260903084036 | 13 | 187 | 9.7 | 19.3 | 0.00 | 1.37 | 0.00 | 88 | 1010.6 |
| 20260903083535 | 13 | 176 | 9.7 | 19.3 | 0.00 | 1.37 | 0.00 | 87 | 1010.5 |
| 20260903083035 | 13 | 197 | 11.3 | 25.7 | 0.00 | 1.37 | 0.00 | 87 | 1010.5 |
| 20260903082534 | 13 | 145 | 11.3 | 25.7 | 0.00 | 1.37 | 0.00 | 86 | 1010.5 |
| 20260903082034 | 13 | 195 | 9.7 | 19.3 | 0.00 | 1.37 | 0.00 | 86 | 1010.5 |
| 20260903081530 | 13 | 210 | 9.7 | 17.7 | 0.00 | 1.37 | 0.00 | 86 | 1010.6 |
| 20260903081041 | 13 | 110 | 9.7 | 17.7 | 0.00 | 1.37 | 0.00 | 87 | 1010.6 |
| 20260903080532 | 13 | 162 | 9.7 | 17.7 | 0.00 | 1.37 | 0.00 | 87 | 1010.5 |
| 20260903080030 | 13 | 172 | 9.7 | 19.3 | 0.00 | 1.37 | 0.00 | 88 | 1010.5 |
| 20260903075530 | 13 | 149 | 11.3 | 19.3 | 0.00 | 1.37 | 0.00 | 88 | 1010.5 |
| 20260903075031 | 13 | 153 | 9.7 | 17.7 | 0.00 | 1.37 | 0.00 | 88 | 1010.5 |
| 20260903074530 | 13 | 172 | 9.7 | 16.1 | 0.00 | 1.37 | 0.00 | 89 | 1010.7 |
| 20260903074031 | 13 | 138 | 9.7 | 17.7 | 0.00 | 1.37 | 0.00 | 89 | 1010.6 |
| 20260903073532 | 13 | 171 | 11.3 | 20.9 | 0.00 | 1.37 | 0.00 | 90 | 1010.6 |
| 20260903073254 | 12 | 197 | 11.3 | 20.9 | 0.00 | 1.37 | 0.00 | 90 | 1010.7 |
| 20260903072531 | 12 | 160 | 11.3 | 20.9 | 0.00 | 1.37 | 0.00 | 90 | 1010.6 |
| 20260903072026 | 12 | 183 | 11.3 | 20.9 | 0.00 | 1.37 | 0.00 | 90 | 1010.5 |
| 20260903071527 | 12 | 126 | 9.7 | 19.3 | 0.00 | 1.37 | 0.00 | 90 | 1010.6 |
| 20260903071026 | 12 | 148 | 9.7 | 16.1 | 0.00 | 1.37 | 0.00 | 91 | 1010.6 |
| 20260903070745 | 12 | 128 | 8.0 | 14.5 | 0.00 | 1.37 | 0.00 | 91 | 1010.6 |
| 20260903070024 | 12 | 164 | 8.0 | 16.1 | 0.00 | 1.37 | 0.00 | 91 | 1010.6 |
| 20260903065525 | 12 | 138 | 9.7 | 16.1 | 0.00 | 1.37 | 1.37 | 91 | 1010.6 |
| 20260903065023 | 12 | 145 | 9.7 | 17.7 | 0.00 | 1.37 | 1.37 | 91 | 1010.7 |
| 20260903064518 | 12 | 153 | 9.7 | 17.7 | 0.00 | 1.37 | 1.37 | 92 | 1010.6 |
| 20260903064015 | 12 | 132 | 9.7 | 16.1 | 0.00 | 1.37 | 1.37 | 92 | 1010.5 |
| 20260903063515 | 12 | 143 | 8.0 | 16.1 | 0.00 | 1.37 | 1.37 | 93 | 1010.5 |
| 20260903063010 | 12 | 123 | 4.8 | 11.3 | 0.00 | 1.37 | 1.37 | 93 | 1010.6 |
| 20260903062509 | 11 | 144 | 3.2 | 6.4 | 0.00 | 1.37 | 1.37 | 93 | 1010.7 |
| 20260903062009 | 11 | 163 | 1.6 | 6.4 | 0.00 | 1.37 | 1.37 | 92 | 1010.6 |
| 20260903061506 | 12 | 172 | 3.2 | 4.8 | 0.00 | 1.37 | 1.37 | 93 | 1010.7 |
| 20260903061225 | 12 | 174 | 3.2 | 6.4 | 0.00 | 1.37 | 1.37 | 92 | 1010.7 |
| 20260903060500 | 12 | 166 | 3.2 | 6.4 | 0.00 | 1.37 | 1.37 | 93 | 1010.6 |
| 20260903060002 | 12 | 129 | 3.2 | 6.4 | 0.00 | 1.37 | 1.37 | 93 | 1010.5 |
| 20260903055458 | 12 | 150 | 1.6 | 8.0 | 0.00 | 1.37 | 1.37 | 92 | 1010.7 |
| 20260903055234 | 12 | 167 | 3.2 | 8.0 | 0.00 | 1.37 | 1.37 | 92 | 1010.4 |
| 20260903054456 | 12 | 157 | 4.8 | 8.0 | 0.00 | 1.37 | 1.37 | 92 | 1010.6 |
| 20260903053957 | 12 | 162 | 4.8 | 8.0 | 0.00 | 1.37 | 1.37 | 92 | 1010.6 |
| 20260903053452 | 12 | 187 | 4.8 | 9.7 | 0.00 | 1.37 | 1.37 | 92 | 1010.7 |
| 20260903052954 | 12 | 137 | 6.4 | 9.7 | 0.00 | 1.37 | 1.37 | 92 | 1010.7 |
| 20260903052935 | 12 | 155 | 6.4 | 9.7 | 0.00 | 1.37 | 1.37 | 92 | 1010.6 |
| 20260903051952 | 12 | 127 | 4.8 | 9.7 | 0.00 | 1.37 | 1.37 | 92 | 1010.7 |
| 20260903051452 | 12 | 140 | 3.2 | 8.0 | 0.00 | 1.37 | 1.37 | 93 | 1010.7 |
| 20260903050954 | 12 | 148 | 3.2 | 6.4 | 0.00 | 1.37 | 1.37 | 93 | 1010.6 |
| 20260903050448 | 12 | 144 | 3.2 | 6.4 | 0.00 | 1.37 | 1.37 | 93 | 1010.6 |
| 20260903045950 | 12 | 153 | 3.2 | 6.4 | 0.00 | 1.37 | 1.37 | 93 | 1010.7 |
| 20260903045449 | 12 | 137 | 3.2 | 6.4 | 0.00 | 1.37 | 1.37 | 93 | 1010.7 |
| 20260903044948 | 12 | 137 | 4.8 | 8.0 | 0.00 | 1.37 | 1.37 | 93 | 1010.6 |
| 20260903044446 | 12 | 129 | 4.8 | 8.0 | 0.00 | 1.37 | 1.37 | 92 | 1010.7 |
| 20260903043944 | 12 | 126 | 4.8 | 6.4 | 0.00 | 1.37 | 1.37 | 92 | 1010.7 |
| 20260903043444 | 12 | 129 | 4.8 | 6.4 | 0.00 | 1.37 | 1.37 | 92 | 1010.6 |
| 20260903042943 | 12 | 126 | 3.2 | 6.4 | 0.00 | 1.37 | 1.37 | 92 | 1010.6 |
| 20260903042705 | 12 | 128 | 3.2 | 6.4 | 0.00 | 1.37 | 1.37 | 92 | 1010.6 |
| 20260903041933 | 12 | 129 | 3.2 | 6.4 | 0.00 | 1.37 | 1.37 | 92 | 1010.5 |
| 20260903041658 | 12 | 141 | 3.2 | 8.0 | 0.00 | 1.37 | 1.37 | 92 | 1010.3 |
| 20260903040933 | 12 | 131 | 3.2 | 8.0 | 0.00 | 1.37 | 1.37 | 92 | 1010.2 |
| 20260903040430 | 12 | 141 | 4.8 | 6.4 | 0.00 | 1.37 | 1.37 | 91 | 1010.2 |
| 20260903035930 | 12 | 134 | 4.8 | 6.4 | 0.00 | 1.37 | 1.37 | 91 | 1010.1 |
| 20260903035426 | 12 | 152 | 4.8 | 6.4 | 0.00 | 1.37 | 1.37 | 91 | 1010.0 |
| 20260903034920 | 13 | 147 | 4.8 | 6.4 | 0.00 | 1.37 | 1.37 | 91 | 1010.0 |
| 20260903034422 | 12 | 145 | 3.2 | 6.4 | 0.00 | 1.37 | 1.37 | 91 | 1010.0 |
| 20260903033916 | 12 | 184 | 3.2 | 6.4 | 0.00 | 1.37 | 1.37 | 91 | 1010.0 |
| 20260903033410 | 13 | 201 | 3.2 | 6.4 | 0.00 | 1.37 | 1.37 | 91 | 1009.9 |
| 20260903032900 | 13 | 202 | 3.2 | 6.4 | 0.00 | 1.37 | 1.37 | 90 | 1009.8 |
| 20260903032400 | 13 | 210 | 3.2 | 6.4 | 0.00 | 1.37 | 1.37 | 90 | 1009.9 |
| 20260903031857 | 13 | 220 | 3.2 | 9.7 | 0.00 | 1.37 | 1.37 | 89 | 1009.8 |
| 20260903031356 | 13 | 165 | 4.8 | 9.7 | 0.00 | 1.37 | 1.37 | 89 | 1009.7 |
| 20260903030856 | 13 | 157 | 4.8 | 9.7 | 0.00 | 1.37 | 1.37 | 89 | 1009.7 |
| 20260903030354 | 13 | 152 | 4.8 | 9.7 | 0.00 | 1.37 | 1.37 | 89 | 1009.6 |
| 20260903025853 | 13 | 168 | 4.8 | 9.7 | 0.00 | 1.37 | 1.37 | 89 | 1009.6 |
| 20260903025352 | 14 | 153 | 4.8 | 8.0 | 0.00 | 1.37 | 1.37 | 89 | 1009.6 |
| 20260903024850 | 14 | 170 | 4.8 | 8.0 | 0.00 | 1.37 | 1.37 | 89 | 1009.6 |
| 20260903024352 | 14 | 180 | 4.8 | 6.4 | 0.00 | 1.37 | 1.37 | 89 | 1009.5 |
| 20260903023849 | 14 | 181 | 4.8 | 11.3 | 0.00 | 1.37 | 1.37 | 89 | 1009.5 |
| 20260903023349 | 15 | 208 | 4.8 | 11.3 | 0.00 | 1.37 | 1.37 | 88 | 1009.5 |
| 20260903022848 | 15 | 207 | 4.8 | 14.5 | 0.00 | 1.37 | 1.37 | 88 | 1009.4 |
| 20260903022347 | 15 | 153 | 6.4 | 14.5 | 0.00 | 1.37 | 1.37 | 87 | 1009.4 |
| 20260903021845 | 15 | 203 | 3.2 | 12.9 | 0.00 | 1.37 | 1.37 | 88 | 1009.3 |
| 20260903021347 | 15 | 184 | 1.6 | 11.3 | 0.00 | 1.37 | 1.37 | 87 | 1009.3 |
| 20260903021104 | 15 | 180 | 1.6 | 1.6 | 0.00 | 1.37 | 1.37 | 86 | 1009.2 |
| 20260903020340 | 15 | 230 | 1.6 | 1.6 | 0.00 | 1.37 | 1.37 | 87 | 1009.2 |
| 20260903015838 | 15 | 220 | 1.6 | 1.6 | 0.00 | 1.37 | 1.37 | 87 | 1009.1 |
| 20260903015338 | 15 | 153 | 1.6 | 1.6 | 0.00 | 1.37 | 1.37 | 86 | 1009.2 |
| 20260903014834 | 15 | 168 | 1.6 | 1.6 | 0.00 | 1.37 | 1.37 | 87 | 1009.1 |
| 20260903014334 | 15 | 249 | 1.6 | 1.6 | 0.00 | 1.37 | 1.37 | 88 | 1009.0 |
| 20260903013830 | 15 | 168 | 1.6 | 1.6 | 0.00 | 1.37 | 1.37 | 88 | 1009.1 |
| 20260903013322 | 15 | 231 | 0.0 | 1.6 | 0.00 | 1.37 | 1.37 | 88 | 1009.0 |
| 20260903012823 | 15 | 276 | 0.0 | 1.6 | 0.00 | 1.37 | 1.37 | 88 | 1008.9 |
| 20260903012322 | 15 | 286 | 0.0 | 1.6 | 0.00 | 1.37 | 1.37 | 86 | 1008.9 |
| 20260903011824 | 15 | 238 | 0.0 | 1.6 | 0.00 | 1.37 | 1.37 | 87 | 1008.9 |
| 20260903011320 | 15 | 232 | 1.6 | 1.6 | 0.03 | 1.37 | 1.37 | 89 | 1008.9 |
| 20260903010821 | 15 | 266 | 1.6 | 1.6 | 0.03 | 1.37 | 1.37 | 89 | 1008.9 |
| 20260903010312 | 15 | 277 | 1.6 | 1.6 | 0.05 | 1.37 | 1.37 | 89 | 1008.9 |
| 20260903005813 | 15 | 235 | 0.0 | 1.6 | 0.08 | 1.37 | 1.37 | 91 | 1008.9 |
| 20260903005309 | 15 | 286 | 0.0 | 1.6 | 0.13 | 1.37 | 1.37 | 91 | 1008.9 |
| 20260903004807 | 15 | 270 | 0.0 | 1.6 | 0.18 | 1.37 | 1.37 | 89 | 1009.0 |
| 20260903004306 | 15 | 244 | 0.0 | 1.6 | 0.23 | 1.37 | 1.37 | 90 | 1008.8 |
| 20260903003806 | 15 | 276 | 0.0 | 1.6 | 0.28 | 1.37 | 1.37 | 91 | 1008.7 |
| 20260903003305 | 15 | 255 | 0.0 | 1.6 | 0.43 | 1.37 | 1.37 | 92 | 1008.5 |
| 20260903002807 | 15 | 271 | 0.0 | 1.6 | 0.48 | 1.37 | 1.37 | 92 | 1008.6 |
| 20260903002306 | 15 | 198 | 1.6 | 1.6 | 0.56 | 1.37 | 1.37 | 94 | 1008.6 |
| 20260903002029 | 15 | 172 | 1.6 | 1.6 | 0.56 | 1.37 | 1.37 | 94 | 1008.4 |
| 20260903001259 | 15 | 160 | 1.6 | 1.6 | 0.53 | 1.35 | 1.37 | 94 | 1008.3 |
| 20260903000801 | 15 | 156 | 1.6 | 1.6 | 0.56 | 1.35 | 1.35 | 94 | 1008.5 |
| 20260903000519 | 15 | 222 | 1.6 | 1.6 | 0.53 | 1.32 | 1.32 | 94 | 1008.4 |
| 20260903000024 | 15 | 225 | 1.6 | 1.6 | 0.53 | 1.30 | 1.30 | 94 | 1008.3 |
| 20260902235259 | 15 | 215 | 1.6 | 1.6 | 0.48 | 1.24 | 1.24 | 94 | 1008.3 |
| 20260902234801 | 15 | 222 | 1.6 | 1.6 | 0.43 | 1.19 | 1.19 | 94 | 1008.2 |
| 20260902234257 | 15 | 231 | 1.6 | 1.6 | 0.38 | 1.14 | 1.14 | 94 | 1008.1 |
| 20260902233801 | 15 | 203 | 0.0 | 1.6 | 0.33 | 1.09 | 1.09 | 93 | 1008.1 |
| 20260902233300 | 15 | 158 | 0.0 | 1.6 | 0.18 | 0.94 | 0.97 | 93 | 1008.0 |
| 20260902232757 | 15 | 183 | 0.0 | 1.6 | 0.13 | 0.89 | 0.89 | 93 | 1007.9 |
| 20260902232257 | 15 | 179 | 0.0 | 1.6 | 0.05 | 0.81 | 0.81 | 93 | 1007.9 |
| 20260902232023 | 15 | 150 | 0.0 | 1.6 | 0.05 | 0.81 | 0.81 | 93 | 1007.7 |
| 20260902231252 | 15 | 172 | 0.0 | 1.6 | 0.05 | 0.79 | 0.79 | 92 | 1007.7 |
| 20260902230753 | 15 | 149 | 0.0 | 1.6 | 0.05 | 0.79 | 0.79 | 92 | 1007.7 |
| 20260902230252 | 15 | 173 | 0.0 | 1.6 | 0.05 | 0.79 | 0.79 | 92 | 1007.6 |
| 20260902230015 | 15 | 125 | 0.0 | 1.6 | 0.05 | 0.76 | 0.76 | 92 | 1007.5 |
| 20260902225249 | 15 | 112 | 0.0 | 1.6 | 0.08 | 0.76 | 0.76 | 92 | 1007.6 |
| 20260902224751 | 15 | 107 | 0.0 | 1.6 | 0.08 | 0.76 | 0.76 | 91 | 1007.5 |
| 20260902224249 | 15 | 139 | 0.0 | 1.6 | 0.08 | 0.76 | 0.76 | 91 | 1007.5 |
| 20260902223753 | 15 | 137 | 0.0 | 1.6 | 0.08 | 0.76 | 0.76 | 91 | 1007.5 |
| 20260902223247 | 15 | 130 | 0.0 | 1.6 | 0.08 | 0.76 | 0.76 | 91 | 1007.5 |
| 20260902222747 | 15 | 126 | 0.0 | 1.6 | 0.08 | 0.76 | 0.76 | 91 | 1007.4 |
| 20260902222246 | 15 | 139 | 0.0 | 1.6 | 0.13 | 0.76 | 0.76 | 90 | 1007.3 |
| 20260902222007 | 15 | 134 | 0.0 | 1.6 | 0.15 | 0.76 | 0.76 | 91 | 1007.3 |
| 20260902221244 | 15 | 183 | 0.0 | 1.6 | 0.15 | 0.74 | 0.74 | 91 | 1007.2 |
| 20260902220742 | 15 | 161 | 0.0 | 1.6 | 0.15 | 0.74 | 0.74 | 91 | 1007.2 |
| 20260902220234 | 15 | 149 | 0.0 | 1.6 | 0.15 | 0.74 | 0.74 | 91 | 1007.1 |
| 20260902215955 | 15 | 109 | 0.0 | 1.6 | 0.13 | 0.71 | 0.74 | 91 | 1007.1 |
| 20260902215236 | 15 | 112 | 0.0 | 1.6 | 0.10 | 0.69 | 0.69 | 91 | 1007.3 |
| 20260902214731 | 15 | 143 | 0.0 | 1.6 | 0.10 | 0.69 | 0.69 | 91 | 1007.2 |
| 20260902214230 | 15 | 168 | 0.0 | 1.6 | 0.10 | 0.69 | 0.69 | 91 | 1007.1 |
| 20260902213949 | 15 | 118 | 0.0 | 1.6 | 0.10 | 0.69 | 0.69 | 91 | 1007.2 |
| 20260902213448 | 15 | 114 | 0.0 | 1.6 | 0.13 | 0.69 | 0.69 | 91 | 1007.2 |
| 20260902212725 | 15 | 117 | 0.0 | 1.6 | 0.13 | 0.69 | 0.69 | 90 | 1007.2 |
| 20260902212223 | 15 | 113 | 3.2 | 20.9 | 0.08 | 0.64 | 0.66 | 90 | 1007.1 |
| 20260902212210 | 15 | 114 | 9.7 | 24.1 | 0.05 | 0.61 | 0.61 | 90 | 1007.1 |
| 20260902211217 | 15 | 108 | 12.9 | 27.4 | 0.03 | 0.58 | 0.58 | 89 | 1007.1 |
| 20260902210717 | 15 | 147 | 14.5 | 27.4 | 0.03 | 0.58 | 0.58 | 89 | 1007.1 |
| 20260902210444 | 15 | 135 | 14.5 | 25.7 | 0.03 | 0.58 | 0.58 | 88 | 1007.0 |
| 20260902205719 | 15 | 116 | 12.9 | 24.1 | 0.03 | 0.58 | 0.58 | 89 | 1007.0 |
| 20260902205213 | 15 | 139 | 12.9 | 22.5 | 0.03 | 0.58 | 0.58 | 89 | 1007.0 |
| 20260902204934 | 15 | 150 | 11.3 | 24.1 | 0.03 | 0.58 | 0.58 | 89 | 1006.9 |
| 20260902204213 | 15 | 125 | 12.9 | 25.7 | 0.03 | 0.58 | 0.58 | 89 | 1006.9 |
| 20260902203713 | 15 | 121 | 14.5 | 25.7 | 0.03 | 0.58 | 0.58 | 89 | 1006.9 |
| 20260902203210 | 15 | 147 | 14.5 | 22.5 | 0.00 | 0.56 | 0.56 | 88 | 1006.9 |
| 20260902202711 | 15 | 133 | 14.5 | 22.5 | 0.00 | 0.56 | 0.56 | 89 | 1006.9 |
| 20260902202210 | 15 | 118 | 14.5 | 27.4 | 0.00 | 0.56 | 0.56 | 88 | 1006.9 |
| 20260902201709 | 15 | 112 | 16.1 | 27.4 | 0.00 | 0.56 | 0.56 | 88 | 1006.8 |
| 20260902201208 | 15 | 122 | 14.5 | 25.7 | 0.00 | 0.56 | 0.56 | 88 | 1006.7 |
| 20260902200711 | 15 | 112 | 14.5 | 29.0 | 0.00 | 0.56 | 0.56 | 88 | 1006.7 |
| 20260902200207 | 15 | 139 | 14.5 | 30.6 | 0.03 | 0.56 | 0.56 | 87 | 1006.8 |
| 20260902200158 | 15 | 150 | 12.9 | 30.6 | 0.03 | 0.56 | 0.56 | 88 | 1006.6 |
| 20260902195205 | 15 | 120 | 6.4 | 25.7 | 0.03 | 0.56 | 0.56 | 88 | 1006.7 |
| 20260902194705 | 15 | 111 | 0.0 | 14.5 | 0.03 | 0.56 | 0.56 | 88 | 1006.7 |
| 20260902194203 | 15 | 158 | 0.0 | 1.6 | 0.03 | 0.56 | 0.56 | 88 | 1006.6 |
| 20260902193705 | 15 | 134 | 0.0 | 1.6 | 0.05 | 0.56 | 0.56 | 88 | 1006.6 |
| 20260902193206 | 15 | 146 | 0.0 | 1.6 | 0.05 | 0.56 | 0.56 | 88 | 1006.6 |
| 20260902192702 | 15 | 146 | 0.0 | 1.6 | 0.05 | 0.56 | 0.56 | 88 | 1006.7 |
| 20260902192420 | 15 | 123 | 0.0 | 1.6 | 0.05 | 0.56 | 0.56 | 88 | 1006.7 |
| 20260902191702 | 15 | 102 | 0.0 | 1.6 | 0.05 | 0.56 | 0.56 | 89 | 1006.6 |
| 20260902191200 | 15 | 114 | 0.0 | 1.6 | 0.05 | 0.56 | 0.56 | 89 | 1006.6 |
| 20260902190658 | 15 | 152 | 0.0 | 1.6 | 0.05 | 0.56 | 0.56 | 90 | 1006.6 |
| 20260902190423 | 15 | 115 | 1.6 | 1.6 | 0.05 | 0.53 | 0.53 | 90 | 1006.6 |
| 20260902185700 | 15 | 111 | 1.6 | 1.6 | 0.05 | 0.53 | 0.53 | 90 | 1006.6 |
| 20260902185159 | 15 | 113 | 1.6 | 1.6 | 0.05 | 0.53 | 0.53 | 91 | 1006.7 |
| 20260902184658 | 15 | 97 | 1.6 | 1.6 | 0.05 | 0.53 | 0.53 | 91 | 1006.7 |
| 20260902184158 | 15 | 114 | 1.6 | 1.6 | 0.05 | 0.53 | 0.53 | 90 | 1006.5 |
| 20260902183659 | 15 | 127 | 1.6 | 1.6 | 0.03 | 0.51 | 0.51 | 91 | 1006.6 |
| 20260902183419 | 15 | 118 | 1.6 | 1.6 | 0.05 | 0.51 | 0.51 | 90 | 1006.8 |
| 20260902182656 | 15 | 151 | 0.0 | 1.6 | 0.10 | 0.51 | 0.51 | 90 | 1006.8 |
| 20260902182152 | 15 | 106 | 0.0 | 1.6 | 0.13 | 0.51 | 0.51 | 90 | 1006.7 |
| 20260902181652 | 15 | 111 | 1.6 | 1.6 | 0.15 | 0.51 | 0.51 | 90 | 1006.7 |
| 20260902181155 | 15 | 137 | 1.6 | 1.6 | 0.23 | 0.51 | 0.51 | 90 | 1006.7 |
| 20260902180654 | 15 | 116 | 1.6 | 1.6 | 0.28 | 0.51 | 0.51 | 90 | 1006.9 |
| 20260902180153 | 15 | 101 | 1.6 | 1.6 | 0.30 | 0.48 | 0.48 | 90 | 1006.8 |
| 20260902175650 | 14 | 118 | 1.6 | 1.6 | 0.36 | 0.48 | 0.48 | 89 | 1006.8 |
| 20260902175150 | 14 | 79 | 1.6 | 1.6 | 0.38 | 0.48 | 0.48 | 90 | 1006.8 |
| 20260902174912 | 14 | 114 | 1.6 | 1.6 | 0.38 | 0.48 | 0.48 | 90 | 1006.7 |